Weather History for Lake Charles Regional, LA

Change the Weather History Date:

Wednesday, July 17, 2013

  Actual Average Record
Temperature  
Mean Temperature 84 °F 83 °F  
Max Temperature 93 °F 91 °F 102 °F (1980)
Min Temperature 74 °F 75 °F 65 °F (1967)
Degree Days  
Heating Degree Days 0 0  
Month to date heating degree days 0 0  
Since 1 June heating degree days 0 0  
Since 1 July heating degree days 0 0  
Cooling Degree Days 19 18  
Month to date cooling degree days 307 303  
Year to date cooling degree days 1337 1321  
Since 1 June cooling degree days 852 783  
Growing Degree Days 33 (Base 50)    
Moisture  
Dew Point 73 °F    
Average Humidity 73    
Maximum Humidity 94    
Minimum Humidity 52    
Precipitation  
Precipitation T in 0.17 in 4.11 in (1952)
Month to date precipitation 0.71 3.24  
Year to date precipitation 34.29 30.97  
Snow  
Snow 0.00 in 0.00 in 0.00 in ()
Month to date snowfall 0.0 0.0  
Since 1 June snowfall 0.0 0.0  
Since 1 July snowfall 0.0 0.0  
Snow Depth 0.00 in    
Sea Level Pressure  
Sea Level Pressure 30.16 in    
Wind  
Wind Speed 7 mph (East)    
Max Wind Speed 28 mph    
Max Gust Speed 36 mph    
Visibility 10 miles    
Events Rain , Thunderstorm    
T = Trace of Precipitation, MM = Missing Value Source: NWS Daily Summary

Daily Weather History Graph

Daily Weather History Graph

Search for Another Location

Airport:

Trip Planner

Search our weather history database for the weather conditions in past years. The results will help you decide how hot, cold, wet, or windy it might be!

Date:

Astronomy

Jul. 17, 2013 Rise Set
Actual Time 6:23 AM CDT 8:14 PM CDT
Civil Twilight 5:56 AM CDT 8:41 PM CDT
Nautical Twilight 5:23 AM CDT 9:13 PM CDT
Astronomical Twilight 4:49 AM CDT 9:48 PM CDT
Moon 3:09 PM CDT (7/17) 1:22 AM CDT (7/17)
Length of Visible Light 14h 45m
Length of Day
13h 51m
Waxing Gibbous, 67% of the Moon is Illuminated
Jul 17
Waxing Gibbous
Jul 22
Full
Jul 29
Last Quarter
Aug 6
New
Aug 14
First Quarter

Hourly Weather History & Observations

Time (CDT) Temp. Heat Index Dew Point Humidity Pressure Visibility Wind Dir Wind Speed Gust Speed Precip Events Conditions
12:53 AM 78.1 °F - 73.9 °F 87% 30.17 in 10.0 mi East 5.8 mph - N/A   Partly Cloudy
1:53 AM 77.0 °F - 73.9 °F 90% 30.15 in 10.0 mi ENE 8.1 mph - N/A   Clear
2:33 AM 75.2 °F - 73.4 °F 94% 30.12 in 10.0 mi SE 4.6 mph - N/A   Mostly Cloudy
2:53 AM 75.9 °F - 73.9 °F 94% 30.14 in 10.0 mi East 3.5 mph - N/A   Mostly Cloudy
3:01 AM 75.2 °F - 73.4 °F 94% 30.11 in 10.0 mi Calm Calm - N/A   Scattered Clouds
3:51 AM 75.2 °F - 73.4 °F 94% 30.12 in 10.0 mi East 5.8 mph - N/A   Mostly Cloudy
3:52 AM 75.9 °F - 73.9 °F 94% 30.14 in 10.0 mi East 6.9 mph - N/A   Mostly Cloudy
4:10 AM 75.2 °F - 73.4 °F 94% 30.12 in 10.0 mi ENE 5.8 mph - N/A   Scattered Clouds
4:53 AM 75.9 °F - 73.9 °F 94% 30.14 in 9.0 mi NE 5.8 mph - N/A   Partly Cloudy
5:53 AM 75.9 °F - 73.9 °F 94% 30.16 in 9.0 mi ENE 6.9 mph - N/A   Partly Cloudy
6:14 AM 75.2 °F - 73.4 °F 94% 30.14 in 9.0 mi ENE 5.8 mph - N/A   Scattered Clouds
6:28 AM 75.2 °F - 73.4 °F 94% 30.14 in 7.0 mi ENE 6.9 mph - N/A   Mostly Cloudy
6:51 AM 75.2 °F - 73.4 °F 94% 30.14 in 7.0 mi ENE 5.8 mph - N/A   Scattered Clouds
6:53 AM 75.9 °F - 73.9 °F 94% 30.17 in 7.0 mi ENE 5.8 mph - N/A   Partly Cloudy
7:37 AM 77.0 °F - 75.2 °F 94% 30.16 in 8.0 mi East 8.1 mph - N/A   Mostly Cloudy
7:53 AM 77.0 °F - 75.0 °F 94% 30.19 in 8.0 mi East 8.1 mph - N/A   Overcast
8:53 AM 80.1 °F 85.1 °F 75.0 °F 85% 30.20 in 10.0 mi East 10.4 mph - N/A   Mostly Cloudy
9:19 AM 80.6 °F 86.2 °F 75.2 °F 84% 30.18 in 10.0 mi East 10.4 mph - N/A   Mostly Cloudy
9:53 AM 82.9 °F 90.2 °F 75.0 °F 77% 30.22 in 10.0 mi East 10.4 mph - N/A   Mostly Cloudy
10:31 AM 84.2 °F 90.9 °F 73.4 °F 70% 30.20 in 10.0 mi East 10.4 mph 18.4 mph N/A   Mostly Cloudy
10:53 AM 86.0 °F 93.8 °F 73.9 °F 67% 30.22 in 10.0 mi East 12.7 mph - N/A   Mostly Cloudy
11:09 AM 87.8 °F 95.6 °F 73.4 °F 62% 30.20 in 10.0 mi ESE 12.7 mph 18.4 mph N/A   Scattered Clouds
11:53 AM 87.1 °F 95.4 °F 73.9 °F 65% 30.22 in 10.0 mi East 11.5 mph - N/A   Mostly Cloudy
12:53 PM 91.0 °F 98.2 °F 72.0 °F 53% 30.21 in 10.0 mi ESE 15.0 mph - N/A   Mostly Cloudy
1:53 PM 91.9 °F 98.4 °F 71.1 °F 50% 30.19 in 10.0 mi East 10.4 mph - N/A   Partly Cloudy
2:53 PM 91.0 °F 97.6 °F 71.1 °F 52% 30.17 in 10.0 mi East 11.5 mph 19.6 mph N/A   Partly Cloudy
3:53 PM 91.9 °F 98.4 °F 71.1 °F 50% 30.15 in 10.0 mi SE 10.4 mph - N/A   Clear
4:35 PM 87.8 °F 95.6 °F 73.4 °F 62% 30.12 in 10.0 mi Calm Calm - N/A Thunderstorm Overcast
4:53 PM 91.9 °F 98.4 °F 71.1 °F 50% 30.15 in 10.0 mi ESE 17.3 mph 25.3 mph N/A Thunderstorm Thunderstorm
5:13 PM 80.6 °F 84.6 °F 71.6 °F 74% 30.13 in 10.0 mi ENE 9.2 mph 24.2 mph 0.00 in Rain , Thunderstorm Light Thunderstorms and Rain
5:53 PM 80.1 °F 82.9 °F 69.1 °F 69% 30.16 in 10.0 mi East 5.8 mph - 0.00 in   Clear
6:53 PM 80.1 °F 82.7 °F 68.0 °F 67% 30.14 in 10.0 mi East 3.5 mph - N/A   Clear
7:53 PM 80.1 °F 82.9 °F 69.1 °F 69% 30.14 in 10.0 mi Calm Calm - N/A   Clear
8:53 PM 75.9 °F - 71.1 °F 85% 30.16 in 10.0 mi Calm Calm - N/A   Clear
9:53 PM 73.9 °F - 71.1 °F 91% 30.16 in 10.0 mi Calm Calm - N/A   Clear
10:53 PM 73.9 °F - 71.1 °F 91% 30.17 in 10.0 mi Calm Calm - N/A   Clear
11:53 PM 75.9 °F - 71.1 °F 85% 30.17 in 10.0 mi Calm Calm - N/A   Clear